When you browse on this site, cookies collect data to enhance your experience and personalize the content and advertising you see.
Visit our Privacy Policy to learn more. By continuing to use the site, you agree to this use of cookies and data.
  • In Hungary
  • List of Countries
  • For 7 days
  • Water Temperature
  • Satellite Maps
  • Weather Map
  • News
  • Weather Widgets
  • user-avatar
    Login

    Hourly Weather Senaki

    Today, 16 January, Wednesday

    Time Temperature Precipitation Wind Pressure Humidity
    00:00 +11°C° 0 mm 7 mps 751 mmHg 42%
    01:00 +11°C° 0 mm 7 mps 751 mmHg 43%
    02:00 +11°C° 0 mm 8 mps 751 mmHg 43%
    03:00 +11°C° 0 mm 8 mps 751 mmHg 43%
    04:00 +11°C° 0 mm 7 mps 751 mmHg 43%
    05:00 +10°C° 0 mm 7 mps 751 mmHg 43%
    06:00 +10°C° 0 mm 7 mps 751 mmHg 43%
    07:00 +10°C° 0 mm 6 mps 751 mmHg 45%
    08:00 +10°C° 0 mm 5 mps 751 mmHg 46%
    09:00 +11°C° 0 mm 4 mps 751 mmHg 47%
    10:00 +12°C° 0 mm 4 mps 752 mmHg 46%
    11:00 +13°C° 0 mm 3 mps 752 mmHg 45%
    12:00 +14°C° 0 mm 3 mps 752 mmHg 44%
    13:00 +13°C° 0.1 mm 3 mps 752 mmHg 53%
    14:00 +12°C° 0.1 mm 3 mps 752 mmHg 62%
    15:00 +11°C° 0.1 mm 3 mps 753 mmHg 71%
    16:00 +10°C° 0.7 mm 3 mps 753 mmHg 77%
    17:00 +8°C° 0.7 mm 4 mps 754 mmHg 84%
    18:00 +6°C° 0.7 mm 4 mps 754 mmHg 91%
    19:00 +6°C° 0.7 mm 4 mps 755 mmHg 90%
    20:00 +6°C° 0.7 mm 4 mps 755 mmHg 90%
    21:00 +5°C° 0.7 mm 4 mps 755 mmHg 90%
    22:00 +5°C° 0.8 mm 4 mps 755 mmHg 89%
    23:00 +5°C° 0.8 mm 4 mps 756 mmHg 88%

    Tomorrow, 17 January, Thursday

    Time Temperature Precipitation Wind Pressure Humidity
    00:00 +4°C° 0.8 mm 4 mps 756 mmHg 88%
    01:00 +4°C° 0.9 mm 4 mps 756 mmHg 86%
    02:00 +4°C° 0.9 mm 4 mps 757 mmHg 84%
    03:00 +4°C° 0.9 mm 4 mps 757 mmHg 82%
    04:00 +4°C° 0.3 mm 4 mps 758 mmHg 81%
    05:00 +3°C° 0.3 mm 3 mps 758 mmHg 80%
    06:00 +3°C° 0.3 mm 3 mps 759 mmHg 78%
    07:00 +3°C° 0.2 mm 3 mps 759 mmHg 78%
    08:00 +4°C° 0.2 mm 2 mps 760 mmHg 78%
    09:00 +4°C° 0.2 mm 2 mps 760 mmHg 78%
    10:00 +5°C° 0.2 mm 2 mps 760 mmHg 77%
    11:00 +4°C° 0.2 mm 3 mps 760 mmHg 75%
    12:00 +4°C° 0.2 mm 3 mps 760 mmHg 73%
    13:00 +4°C° 0.3 mm 3 mps 761 mmHg 74%
    14:00 +4°C° 0.3 mm 3 mps 761 mmHg 74%
    15:00 +4°C° 0.3 mm 3 mps 761 mmHg 75%
    16:00 +4°C° 0.3 mm 3 mps 762 mmHg 78%
    17:00 +4°C° 0.3 mm 3 mps 763 mmHg 80%
    18:00 +4°C° 0.3 mm 2 mps 764 mmHg 83%
    19:00 +4°C° 0.1 mm 2 mps 764 mmHg 83%
    20:00 +4°C° 0.1 mm 2 mps 765 mmHg 83%
    21:00 +4°C° 0.1 mm 2 mps 766 mmHg 84%
    22:00 +4°C° 0.2 mm 2 mps 766 mmHg 83%
    23:00 +4°C° 0.2 mm 2 mps 766 mmHg 82%

    Day after tomorrow, 18 January, Friday

    Time Temperature Precipitation Wind Pressure Humidity
    00:00 +5°C° 0.2 mm 1 mps 766 mmHg 82%
    01:00 +5°C° 0.2 mm 1 mps 767 mmHg 82%
    02:00 +4°C° 0.2 mm 1 mps 767 mmHg 82%
    03:00 +4°C° 0.2 mm 1 mps 767 mmHg 82%
    04:00 +4°C° 0.3 mm 1 mps 767 mmHg 81%
    05:00 +4°C° 0.3 mm 1 mps 767 mmHg 81%
    06:00 +3°C° 0.3 mm 2 mps 767 mmHg 80%
    07:00 +3°C° 0.1 mm 2 mps 767 mmHg 78%
    08:00 +3°C° 0.1 mm 2 mps 768 mmHg 77%
    09:00 +3°C° 0.1 mm 2 mps 768 mmHg 75%
    10:00 +5°C° 0 mm 1 mps 767 mmHg 72%
    11:00 +6°C° 0 mm 1 mps 766 mmHg 69%
    12:00 +7°C° 0 mm 1 mps 766 mmHg 66%
    13:00 +7°C° 0 mm 1 mps 765 mmHg 65%
    14:00 +8°C° 0 mm 1 mps 765 mmHg 64%
    15:00 +8°C° 0 mm 1 mps 765 mmHg 64%
    16:00 +7°C° 0 mm 1 mps 765 mmHg 68%
    17:00 +6°C° 0 mm 1 mps 766 mmHg 72%
    18:00 +5°C° 0 mm 1 mps 766 mmHg 76%
    19:00 +5°C° 0 mm 1 mps 766 mmHg 76%
    20:00 +4°C° 0 mm 2 mps 767 mmHg 76%
    21:00 +3°C° 0 mm 2 mps 767 mmHg 76%
    22:00 +3°C° 0 mm 2 mps 767 mmHg 74%
    23:00 +3°C° 0 mm 2 mps 767 mmHg 73%

    19 January, Saturday

    Time Temperature Precipitation Wind Pressure Humidity
    00:00 +3°C° 0 mm 2 mps 767 mmHg 72%
    01:00 +2°C° 0 mm 2 mps 767 mmHg 71%
    02:00 +2°C° 0 mm 2 mps 766 mmHg 70%
    03:00 +2°C° 0 mm 2 mps 766 mmHg 69%
    04:00 +2°C° 0 mm 2 mps 766 mmHg 68%
    05:00 +2°C° 0 mm 2 mps 766 mmHg 67%
    06:00 +2°C° 0 mm 2 mps 766 mmHg 66%
    07:00 +2°C° 0 mm 2 mps 766 mmHg 64%
    08:00 +3°C° 0 mm 2 mps 766 mmHg 63%
    09:00 +3°C° 0 mm 2 mps 766 mmHg 62%
    10:00 +5°C° 0 mm 2 mps 765 mmHg 56%
    11:00 +8°C° 0 mm 1 mps 765 mmHg 50%
    12:00 +9°C° 0 mm 1 mps 764 mmHg 45%
    13:00 +10°C° 0 mm 1 mps 764 mmHg 44%
    14:00 +10°C° 0 mm 1 mps 764 mmHg 43%
    15:00 +9°C° 0 mm 0 mps 764 mmHg 42%
    16:00 +9°C° 0 mm 1 mps 764 mmHg 47%
    17:00 +8°C° 0 mm 1 mps 765 mmHg 52%
    18:00 +7°C° 0 mm 1 mps 765 mmHg 57%
    19:00 +6°C° 0 mm 1 mps 765 mmHg 59%
    20:00 +6°C° 0 mm 1 mps 766 mmHg 61%
    21:00 +6°C° 0 mm 1 mps 766 mmHg 63%
    22:00 +4°C° 0 mm 2 mps 766 mmHg 63%
    23:00 +4°C° 0 mm 2 mps 766 mmHg 63%

    20 January, Sunday

    Time Temperature Precipitation Wind Pressure Humidity
    00:00 +4°C° 0 mm 2 mps 766 mmHg 63%
    01:00 +4°C° 0 mm 2 mps 766 mmHg 63%
    02:00 +3°C° 0 mm 2 mps 766 mmHg 62%
    03:00 +3°C° 0 mm 2 mps 766 mmHg 62%
    04:00 +3°C° 0 mm 2 mps 766 mmHg 61%
    05:00 +3°C° 0 mm 2 mps 766 mmHg 61%
    06:00 +3°C° 0 mm 2 mps 766 mmHg 60%
    07:00 +3°C° 0 mm 2 mps 766 mmHg 59%
    08:00 +4°C° 0 mm 2 mps 766 mmHg 58%
    09:00 +4°C° 0 mm 2 mps 766 mmHg 57%
    10:00 +6°C° 0 mm 2 mps 766 mmHg 51%
    11:00 +7°C° 0 mm 2 mps 765 mmHg 45%
    12:00 +9°C° 0 mm 2 mps 765 mmHg 38%
    13:00 +9°C° 0 mm 2 mps 764 mmHg 38%
    14:00 +11°C° 0 mm 1 mps 764 mmHg 38%
    15:00 +11°C° 0 mm 1 mps 764 mmHg 38%
    16:00 +10°C° 0 mm 1 mps 764 mmHg 43%
    17:00 +8°C° 0 mm 1 mps 765 mmHg 49%
    18:00 +6°C° 0 mm 2 mps 765 mmHg 54%
    19:00 +6°C° 0 mm 2 mps 765 mmHg 56%
    20:00 +5°C° 0 mm 2 mps 765 mmHg 58%
    21:00 +5°C° 0 mm 2 mps 766 mmHg 61%
    22:00 +4°C° 0 mm 2 mps 765 mmHg 60%
    23:00 +4°C° 0 mm 2 mps 765 mmHg 60%

    21 January, Monday

    Time Temperature Precipitation Wind Pressure Humidity
    00:00 +4°C° 0 mm 2 mps 765 mmHg 60%
    01:00 +4°C° 0 mm 2 mps 765 mmHg 60%
    02:00 +3°C° 0 mm 2 mps 765 mmHg 59%
    03:00 +3°C° 0 mm 2 mps 765 mmHg 58%
    04:00 +3°C° 0 mm 2 mps 765 mmHg 58%
    05:00 +3°C° 0 mm 2 mps 765 mmHg 58%
    06:00 +3°C° 0 mm 2 mps 764 mmHg 57%
    07:00 +3°C° 0 mm 2 mps 764 mmHg 56%
    08:00 +4°C° 0 mm 2 mps 764 mmHg 55%
    09:00 +4°C° 0 mm 2 mps 764 mmHg 54%
    10:00 +6°C° 0 mm 2 mps 764 mmHg 49%
    11:00 +8°C° 0 mm 2 mps 763 mmHg 43%
    12:00 +10°C° 0 mm 2 mps 762 mmHg 38%
    13:00 +10°C° 0 mm 2 mps 762 mmHg 38%
    14:00 +10°C° 0 mm 2 mps 762 mmHg 38%
    15:00 +11°C° 0 mm 1 mps 761 mmHg 38%
    16:00 +10°C° 0 mm 1 mps 762 mmHg 42%
    17:00 +9°C° 0 mm 1 mps 762 mmHg 47%
    18:00 +8°C° 0 mm 1 mps 763 mmHg 51%
    19:00 +8°C° 0 mm 1 mps 763 mmHg 54%
    20:00 +7°C° 0 mm 1 mps 763 mmHg 56%
    21:00 +7°C° 0 mm 1 mps 763 mmHg 58%
    22:00 +7°C° 0.3 mm 1 mps 764 mmHg 62%
    23:00 +7°C° 0.3 mm 1 mps 764 mmHg 66%
    Show more